Tracking 30107 objects as of 25-Jan-2025
HD Live streaming from Space Station
objects crossing your sky now

SL-3 DEB

Track SL-3 DEB now!
10-day predictions


NORAD ID: 14928
Int'l Code: 1983-075F
Perigee: 469.3 km
Apogee: 502.8 km
Inclination: 97.8 °
Period: 94.2 minutes
Semi major axis: 6857 km
RCS: 0.0341 m2 (small)
Launch date: July 24, 1983
Source: Commonwealth of Independent States (former USSR) (CIS)
Launch site: TYURATAM MISSILE AND SPACE COMPLEX (TTMTR)

Note: This is SATELLITE DEBRIS
Your satellite tracking list
Your tracking list is empty




NASA's NSSDC Master Catalog

Two Line Element Set (TLE):
1 14928U 83075F   25025.33944901  .00015551  00000-0  55025-3 0  9991
2 14928  97.7709 313.6874 0024475  47.5614 312.7689 15.28963271240877
Source of the keplerian elements: AFSPC